Time,TemperatureF,DewpointF,PressureIn,WindDirection,WindDirectionDegrees,WindSpeedMPH,WindSpeedGustMPH,Humidity,HourlyPrecipIn,Conditions,Clouds,dailyrainin,SoftwareType,DateUTC
2013-02-06 00:02:00,61.0,-99.9,29.86,West,263,0.0,0.0,-999,0.00,,,0.00,,2013-02-06 05:02:00,
2013-02-06 00:12:00,61.0,-99.9,29.86,West,263,0.0,0.0,-999,0.00,,,0.00,,2013-02-06 05:12:00,
2013-02-06 00:22:00,59.0,-99.9,29.85,West,263,0.0,0.0,-999,0.00,,,0.00,,2013-02-06 05:22:00,
2013-02-06 00:32:00,60.0,-99.9,29.85,West,263,0.0,0.0,-999,0.00,,,0.00,,2013-02-06 05:32:00,
2013-02-06 00:42:00,60.0,-99.9,29.85,West,263,0.0,0.0,-999,0.00,,,0.00,,2013-02-06 05:42:00,
2013-02-06 00:53:00,59.0,-99.9,29.84,West,263,0.0,0.0,-999,0.00,,,0.00,,2013-02-06 05:53:00,
2013-02-06 01:01:00,59.0,-99.9,29.84,West,263,0.0,0.0,-999,0.00,,,0.00,,2013-02-06 06:01:00,
2013-02-06 01:11:00,59.0,-99.9,29.84,West,263,0.0,0.0,-999,0.00,,,0.00,,2013-02-06 06:11:00,
2013-02-06 01:22:00,61.0,-99.9,29.85,West,263,0.0,0.0,-999,0.00,,,0.00,,2013-02-06 06:22:00,
2013-02-06 01:32:00,60.0,-99.9,29.84,West,263,0.0,0.0,-999,0.00,,,0.00,,2013-02-06 06:32:00,
2013-02-06 01:42:00,60.0,-99.9,29.84,West,263,0.0,0.0,-999,0.00,,,0.00,,2013-02-06 06:42:00,
2013-02-06 01:52:00,60.0,-99.9,29.84,West,263,0.0,0.0,-999,0.00,,,0.00,,2013-02-06 06:52:00,
2013-02-06 02:02:00,60.0,-99.9,29.83,West,263,0.0,0.0,-999,0.00,,,0.00,,2013-02-06 07:02:00,
2013-02-06 02:11:00,60.0,-99.9,29.83,West,263,0.0,0.0,-999,0.00,,,0.00,,2013-02-06 07:11:00,
2013-02-06 02:22:00,58.0,-99.9,29.83,West,263,0.0,0.0,-999,0.00,,,0.00,,2013-02-06 07:22:00,
2013-02-06 02:32:00,59.0,-99.9,29.83,West,263,0.0,0.0,-999,0.00,,,0.00,,2013-02-06 07:32:00,
2013-02-06 02:42:00,59.0,-99.9,29.83,West,263,0.0,0.0,-999,0.00,,,0.00,,2013-02-06 07:42:00,
2013-02-06 02:52:00,58.0,-99.9,29.82,West,263,0.0,0.0,-999,0.00,,,0.00,,2013-02-06 07:52:00,
2013-02-06 03:01:00,58.0,-99.9,29.83,West,263,0.0,0.0,-999,0.00,,,0.00,,2013-02-06 08:01:00,
2013-02-06 03:11:00,58.0,-99.9,29.83,West,263,0.0,0.0,-999,0.00,,,0.00,,2013-02-06 08:11:00,
2013-02-06 03:21:00,59.0,-99.9,29.83,West,263,0.0,0.0,-999,0.00,,,0.00,,2013-02-06 08:21:00,
2013-02-06 03:32:00,58.0,-99.9,29.83,West,263,0.0,0.0,-999,0.00,,,0.00,,2013-02-06 08:32:00,
2013-02-06 03:42:00,58.0,-99.9,29.83,West,263,0.0,0.0,-999,0.00,,,0.00,,2013-02-06 08:42:00,
2013-02-06 03:53:00,58.0,-99.9,29.82,West,263,0.0,0.0,-999,0.00,,,0.00,,2013-02-06 08:53:00,
2013-02-06 04:02:00,59.0,-99.9,29.83,West,263,0.0,0.0,-999,0.00,,,0.00,,2013-02-06 09:02:00,
2013-02-06 04:11:00,59.0,-99.9,29.83,West,263,0.0,0.0,-999,0.00,,,0.00,,2013-02-06 09:11:00,
2013-02-06 04:22:00,58.0,-99.9,29.84,West,263,0.0,0.0,-999,0.00,,,0.00,,2013-02-06 09:22:00,
2013-02-06 04:32:00,58.0,-99.9,29.84,West,263,0.0,0.0,-999,0.00,,,0.00,,2013-02-06 09:32:00,
2013-02-06 04:42:00,58.0,-99.9,29.84,West,263,0.0,0.0,-999,0.00,,,0.00,,2013-02-06 09:42:00,
2013-02-06 04:52:00,58.0,-99.9,29.83,West,263,0.0,0.0,-999,0.00,,,0.00,,2013-02-06 09:52:00,
2013-02-06 05:01:00,58.0,-99.9,29.84,West,263,0.0,0.0,-999,0.00,,,0.00,,2013-02-06 10:01:00,
2013-02-06 05:11:00,58.0,-99.9,29.84,West,263,0.0,0.0,-999,0.00,,,0.00,,2013-02-06 10:11:00,
2013-02-06 05:22:00,58.0,-99.9,29.84,West,263,0.0,0.0,-999,0.00,,,0.00,,2013-02-06 10:22:00,
2013-02-06 05:32:00,58.0,-99.9,29.84,West,263,0.0,0.0,-999,0.00,,,0.00,,2013-02-06 10:32:00,
2013-02-06 05:42:00,58.0,-99.9,29.84,West,263,0.0,0.0,-999,0.00,,,0.00,,2013-02-06 10:42:00,
2013-02-06 05:52:00,58.0,-99.9,29.85,West,263,0.0,0.0,-999,0.00,,,0.00,,2013-02-06 10:52:00,
2013-02-06 06:02:00,58.0,-99.9,29.84,West,263,0.0,0.0,-999,0.00,,,0.00,,2013-02-06 11:02:00,
2013-02-06 06:11:00,58.0,-99.9,29.84,West,263,0.0,0.0,-999,0.00,,,0.00,,2013-02-06 11:11:00,
2013-02-06 06:22:00,58.0,-99.9,29.85,West,263,0.0,0.0,-999,0.00,,,0.00,,2013-02-06 11:22:00,
2013-02-06 06:33:00,57.0,-99.9,29.85,West,263,0.0,0.0,-999,0.00,,,0.00,,2013-02-06 11:33:00,
2013-02-06 06:42:00,57.0,-99.9,29.85,West,263,0.0,0.0,-999,0.00,,,0.00,,2013-02-06 11:42:00,
2013-02-06 06:53:00,57.0,-99.9,29.86,West,263,0.0,0.0,-999,0.00,,,0.00,,2013-02-06 11:53:00,
2013-02-06 07:02:00,58.0,-99.9,29.86,West,263,0.0,0.0,-999,0.00,,,0.00,,2013-02-06 12:02:00,
2013-02-06 07:12:00,58.0,-99.9,29.86,West,263,0.0,0.0,-999,0.00,,,0.00,,2013-02-06 12:12:00,
2013-02-06 07:22:00,57.0,-99.9,29.87,West,263,0.0,0.0,-999,0.00,,,0.00,,2013-02-06 12:22:00,
2013-02-06 07:32:00,57.0,-99.9,29.88,West,263,0.0,0.0,-999,0.00,,,0.00,,2013-02-06 12:32:00,
2013-02-06 07:42:00,57.0,-99.9,29.88,West,263,0.0,0.0,-999,0.00,,,0.00,,2013-02-06 12:42:00,
2013-02-06 07:52:00,58.0,-99.9,29.87,West,263,0.0,0.0,-999,0.00,,,0.00,,2013-02-06 12:52:00,
2013-02-06 08:02:00,57.0,-99.9,29.87,West,263,0.0,0.0,-999,0.00,,,0.00,,2013-02-06 13:02:00,
2013-02-06 08:12:00,57.0,-99.9,29.87,West,263,0.0,0.0,-999,0.00,,,0.00,,2013-02-06 13:12:00,
2013-02-06 08:22:00,59.0,-99.9,29.88,West,263,0.0,0.0,-999,0.00,,,0.00,,2013-02-06 13:22:00,
2013-02-06 08:32:00,59.0,-99.9,29.89,West,263,0.0,0.0,-999,0.00,,,0.00,,2013-02-06 13:32:00,
2013-02-06 08:52:00,61.0,-99.9,29.89,West,263,0.0,0.0,-999,0.00,,,0.00,,2013-02-06 13:52:00,
2013-02-06 09:02:00,62.0,-99.9,29.89,West,263,0.0,0.0,-999,0.00,,,0.00,,2013-02-06 14:02:00,
2013-02-06 09:11:00,61.0,-99.9,29.90,West,263,0.0,0.0,-999,0.00,,,0.00,,2013-02-06 14:11:00,
2013-02-06 09:22:00,61.0,-99.9,29.90,West,263,0.0,0.0,-999,0.00,,,0.00,,2013-02-06 14:22:00,
2013-02-06 09:32:00,61.0,-99.9,29.89,West,263,0.0,0.0,-999,0.00,,,0.00,,2013-02-06 14:32:00,
2013-02-06 09:42:00,63.0,-99.9,29.91,East,98,0.0,0.0,-999,0.00,,,0.00,,2013-02-06 14:42:00,
2013-02-06 09:52:00,63.0,-99.9,29.91,East,98,0.0,0.0,-999,0.00,,,0.00,,2013-02-06 14:52:00,
2013-02-06 10:02:00,64.0,-99.9,29.91,East,98,0.0,0.0,-999,0.00,,,0.00,,2013-02-06 15:02:00,
2013-02-06 10:11:00,62.0,-99.9,29.92,East,98,0.0,0.0,-999,0.00,,,0.00,,2013-02-06 15:11:00,
2013-02-06 10:21:00,62.0,-99.9,29.92,East,98,0.0,0.0,-999,0.00,,,0.00,,2013-02-06 15:21:00,
2013-02-06 10:32:00,65.0,-99.9,29.92,East,98,0.0,0.0,-999,0.00,,,0.00,,2013-02-06 15:32:00,
2013-02-06 10:42:00,65.0,-99.9,29.92,East,98,0.0,0.0,-999,0.00,,,0.00,,2013-02-06 15:42:00,
2013-02-06 10:52:00,65.0,-99.9,29.92,East,98,0.0,0.0,-999,0.00,,,0.00,,2013-02-06 15:52:00,
2013-02-06 11:01:00,64.0,-99.9,29.92,East,98,0.0,0.0,-999,0.00,,,0.00,,2013-02-06 16:01:00,
2013-02-06 11:11:00,64.0,-99.9,29.92,East,98,0.0,0.0,-999,0.00,,,0.00,,2013-02-06 16:11:00,
2013-02-06 11:22:00,67.0,-99.9,29.91,ESE,122,0.0,0.0,-999,0.00,,,0.00,,2013-02-06 16:22:00,
2013-02-06 11:32:00,65.0,-99.9,29.91,East,79,0.0,0.0,-999,0.00,,,0.00,,2013-02-06 16:32:00,
2013-02-06 11:52:00,66.0,-99.9,29.91,East,97,1.0,0.0,-999,0.00,,,0.00,,2013-02-06 16:52:00,
2013-02-06 12:02:00,68.0,-99.9,29.90,SE,127,1.0,0.0,-999,0.00,,,0.00,,2013-02-06 17:02:00,
2013-02-06 12:12:00,71.0,-99.9,29.89,SW,219,4.0,7.0,-999,0.00,,,0.00,,2013-02-06 17:12:00,
2013-02-06 12:22:00,71.0,-99.9,29.89,SW,219,4.0,7.0,-999,0.00,,,0.00,,2013-02-06 17:22:00,
2013-02-06 12:33:00,71.0,-99.9,29.88,East,79,4.0,4.0,-999,0.00,,,0.00,,2013-02-06 17:33:00,
2013-02-06 12:42:00,70.0,-99.9,29.88,SE,145,3.0,7.0,-999,0.00,,,0.00,,2013-02-06 17:42:00,
2013-02-06 12:53:00,70.0,-99.9,29.88,SE,145,3.0,7.0,-999,0.00,,,0.00,,2013-02-06 17:53:00,
2013-02-06 13:02:00,69.0,-99.9,29.88,SSE,156,6.0,0.0,-999,0.00,,,0.00,,2013-02-06 18:02:00,
2013-02-06 13:12:00,69.0,-99.9,29.87,SE,125,1.0,0.0,-999,0.00,,,0.00,,2013-02-06 18:12:00,
2013-02-06 13:23:00,69.0,-99.9,29.87,SE,125,1.0,0.0,-999,0.00,,,0.00,,2013-02-06 18:23:00,
2013-02-06 13:33:00,70.0,-99.9,29.87,ESE,113,0.0,0.0,-999,0.00,,,0.00,,2013-02-06 18:33:00,
2013-02-06 13:52:00,71.0,-99.9,29.86,South,170,0.0,0.0,-999,0.00,,,0.00,,2013-02-06 18:52:00,
2013-02-06 14:02:00,73.0,-99.9,29.85,ENE,59,1.0,0.0,-999,0.00,,,0.00,,2013-02-06 19:02:00,
2013-02-06 14:11:00,73.0,-99.9,29.85,ENE,59,1.0,0.0,-999,0.00,,,0.00,,2013-02-06 19:11:00,
2013-02-06 14:22:00,73.0,-99.9,29.85,SE,145,3.0,6.0,-999,0.00,,,0.00,,2013-02-06 19:22:00,
2013-02-06 14:32:00,74.0,-99.9,29.85,East,101,4.0,4.0,-999,0.00,,,0.00,,2013-02-06 19:32:00,
2013-02-06 14:42:00,74.0,-99.9,29.85,East,101,4.0,4.0,-999,0.00,,,0.00,,2013-02-06 19:42:00,
2013-02-06 14:52:00,70.0,-99.9,29.85,SSW,204,1.0,5.0,-999,0.00,,,0.00,,2013-02-06 19:52:00,
2013-02-06 15:01:00,75.0,-99.9,29.84,SE,142,3.0,0.0,-999,0.00,,,0.00,,2013-02-06 20:01:00,
2013-02-06 15:11:00,73.0,-99.9,29.84,ESE,121,3.0,5.0,-999,0.00,,,0.00,,2013-02-06 20:11:00,
2013-02-06 15:22:00,73.0,-99.9,29.84,ESE,121,3.0,5.0,-999,0.00,,,0.00,,2013-02-06 20:22:00,
2013-02-06 15:32:00,75.0,-99.9,29.83,SSE,148,0.0,0.0,-999,0.00,,,0.00,,2013-02-06 20:32:00,
2013-02-06 15:42:00,75.0,-99.9,29.83,SSE,148,0.0,0.0,-999,0.00,,,0.00,,2013-02-06 20:42:00,
2013-02-06 15:52:00,74.0,-99.9,29.84,East,101,0.0,0.0,-999,0.00,,,0.00,,2013-02-06 20:52:00,
2013-02-06 16:02:00,74.0,-99.9,29.84,ENE,69,0.0,0.0,-999,0.00,,,0.00,,2013-02-06 21:02:00,
2013-02-06 16:11:00,74.0,-99.9,29.84,ENE,69,0.0,0.0,-999,0.00,,,0.00,,2013-02-06 21:11:00,
2013-02-06 16:22:00,73.0,-99.9,29.83,ESE,107,0.0,0.0,-999,0.00,,,0.00,,2013-02-06 21:22:00,
2013-02-06 16:32:00,73.0,-99.9,29.83,ESE,115,0.0,0.0,-999,0.00,,,0.00,,2013-02-06 21:32:00,
2013-02-06 16:42:00,73.0,-99.9,29.83,ESE,115,0.0,0.0,-999,0.00,,,0.00,,2013-02-06 21:42:00,
2013-02-06 16:52:00,73.0,-99.9,29.83,ESE,115,0.0,0.0,-999,0.00,,,0.00,,2013-02-06 21:52:00,
2013-02-06 17:01:00,74.0,-99.9,29.83,ESE,115,0.0,0.0,-999,0.00,,,0.00,,2013-02-06 22:01:00,
2013-02-06 17:11:00,74.0,-99.9,29.83,ESE,115,0.0,0.0,-999,0.00,,,0.00,,2013-02-06 22:11:00,
2013-02-06 17:22:00,73.0,-99.9,29.83,ESE,115,0.0,0.0,-999,0.00,,,0.00,,2013-02-06 22:22:00,
2013-02-06 17:32:00,74.0,-99.9,29.83,ESE,115,0.0,0.0,-999,0.00,,,0.00,,2013-02-06 22:32:00,
2013-02-06 17:42:00,74.0,-99.9,29.83,ESE,115,0.0,0.0,-999,0.00,,,0.00,,2013-02-06 22:42:00,
2013-02-06 17:52:00,73.0,-99.9,29.83,NE,55,0.0,0.0,-999,0.00,,,0.00,,2013-02-06 22:52:00,
2013-02-06 18:01:00,72.0,-99.9,29.83,NE,55,0.0,0.0,-999,0.00,,,0.00,,2013-02-06 23:01:00,
2013-02-06 18:11:00,72.0,-99.9,29.83,NE,55,0.0,0.0,-999,0.00,,,0.00,,2013-02-06 23:11:00,
2013-02-06 18:21:00,71.0,-99.9,29.84,NE,55,0.0,0.0,-999,0.00,,,0.00,,2013-02-06 23:21:00,
2013-02-06 18:32:00,71.0,-99.9,29.84,NE,55,0.0,0.0,-999,0.00,,,0.00,,2013-02-06 23:32:00,
2013-02-06 18:52:00,70.0,-99.9,29.83,NE,55,0.0,0.0,-999,0.00,,,0.00,,2013-02-06 23:52:00,
2013-02-06 19:02:00,70.0,-99.9,29.84,NNE,21,0.0,0.0,-999,0.00,,,0.00,,2013-02-07 00:02:00,
2013-02-06 19:11:00,70.0,-99.9,29.84,NNE,21,0.0,0.0,-999,0.00,,,0.00,,2013-02-07 00:11:00,
2013-02-06 19:22:00,70.0,-99.9,29.84,NE,52,0.0,0.0,-999,0.00,,,0.00,,2013-02-07 00:22:00,
2013-02-06 19:32:00,70.0,-99.9,29.84,East,90,0.0,0.0,-999,0.00,,,0.00,,2013-02-07 00:32:00,
2013-02-06 19:42:00,70.0,-99.9,29.84,East,90,0.0,0.0,-999,0.00,,,0.00,,2013-02-07 00:42:00,
2013-02-06 19:52:00,70.0,-99.9,29.85,NE,45,1.0,3.0,-999,0.00,,,0.00,,2013-02-07 00:52:00,
2013-02-06 20:01:00,69.0,-99.9,29.85,East,94,6.0,6.0,-999,0.00,,,0.00,,2013-02-07 01:01:00,
2013-02-06 20:11:00,69.0,-99.9,29.85,East,94,6.0,6.0,-999,0.00,,,0.00,,2013-02-07 01:11:00,
2013-02-06 20:21:00,69.0,-99.9,29.86,ESE,111,3.0,3.0,-999,0.00,,,0.00,,2013-02-07 01:21:00,
2013-02-06 20:32:00,69.0,-99.9,29.86,East,94,5.0,0.0,-999,0.00,,,0.00,,2013-02-07 01:32:00,
2013-02-06 20:42:00,69.0,-99.9,29.86,East,94,5.0,0.0,-999,0.00,,,0.00,,2013-02-07 01:42:00,
2013-02-06 20:52:00,68.0,-99.9,29.87,ESE,110,4.0,5.0,-999,0.00,,,0.00,,2013-02-07 01:52:00,
2013-02-06 21:02:00,68.0,-99.9,29.87,ESE,103,0.0,0.0,-999,0.00,,,0.00,,2013-02-07 02:02:00,
2013-02-06 21:12:00,68.0,-99.9,29.87,ESE,103,0.0,0.0,-999,0.00,,,0.00,,2013-02-07 02:12:00,
2013-02-06 21:21:00,68.0,-99.9,29.87,ESE,103,6.0,0.0,-999,0.00,,,0.00,,2013-02-07 02:21:00,
2013-02-06 21:32:00,68.0,-99.9,29.87,ESE,122,0.0,0.0,-999,0.00,,,0.00,,2013-02-07 02:32:00,
2013-02-06 21:42:00,68.0,-99.9,29.87,ESE,122,0.0,0.0,-999,0.00,,,0.00,,2013-02-07 02:42:00,
2013-02-06 21:52:00,68.0,-99.9,29.87,ESE,122,0.0,0.0,-999,0.00,,,0.00,,2013-02-07 02:52:00,
2013-02-06 22:02:00,67.0,-99.9,29.88,ESE,105,0.0,0.0,-999,0.00,,,0.00,,2013-02-07 03:02:00,
2013-02-06 22:11:00,67.0,-99.9,29.88,ESE,120,2.0,6.0,-999,0.00,,,0.00,,2013-02-07 03:11:00,
2013-02-06 22:22:00,67.0,-99.9,29.88,ESE,120,2.0,6.0,-999,0.00,,,0.00,,2013-02-07 03:22:00,
2013-02-06 22:32:00,66.0,-99.9,29.89,ESE,110,1.0,0.0,-999,0.00,,,0.00,,2013-02-07 03:32:00,
2013-02-06 22:42:00,66.0,-99.9,29.89,ESE,110,1.0,0.0,-999,0.00,,,0.00,,2013-02-07 03:42:00,
2013-02-06 22:52:00,66.0,-99.9,29.88,ENE,76,0.0,0.0,-999,0.00,,,0.00,,2013-02-07 03:52:00,
2013-02-06 23:01:00,66.0,-99.9,29.89,ENE,76,0.0,0.0,-999,0.00,,,0.00,,2013-02-07 04:01:00,
2013-02-06 23:11:00,66.0,-99.9,29.89,ENE,76,0.0,0.0,-999,0.00,,,0.00,,2013-02-07 04:11:00,
2013-02-06 23:22:00,66.0,-99.9,29.88,ENE,76,0.0,0.0,-999,0.00,,,0.00,,2013-02-07 04:22:00,
2013-02-06 23:32:00,65.0,-99.9,29.89,ESE,115,0.0,0.0,-999,0.00,,,0.00,,2013-02-07 04:32:00,
2013-02-06 23:42:00,65.0,-99.9,29.89,ESE,115,0.0,0.0,-999,0.00,,,0.00,,2013-02-07 04:42:00,
2013-02-06 23:53:00,65.0,-99.9,29.88,ESE,117,2.0,0.0,-999,0.00,,,0.00,,2013-02-07 04:53:00,